GLO1544 SBGR-SBEG

Flight info

Callsign GLO1544
Flight time N/A
Altitude 36000
Route GERTU UM417 EVRIV DCT PUDKA DCT MATNA DCT IRUMO
Aircraft B738/M-SDFGIKLORWXY/LB1

Departure

Time N/A
Airport São Paulo/Guarulhos–Governor André Franco Montoro International Airport (SBGR)

Arrival

Time 2026-04-23 15:29
Airport Eduardo Gomes International Airport (SBEG)
Time Latitude Longitude Altitude Speed Heading
2026-04-23 15:21 -3.19706 -60.21912 5623 ft 213 kts 349°
2026-04-23 15:21 -3.18261 -60.22145 5387 ft 208 kts 349°
2026-04-23 15:21 -3.16856 -60.22375 5175 ft 202 kts 349°
2026-04-23 15:21 -3.15475 -60.22603 4963 ft 200 kts 349°
2026-04-23 15:22 -3.14126 -60.22826 4762 ft 198 kts 349°
2026-04-23 15:22 -3.12760 -60.22916 4547 ft 196 kts 359°
2026-04-23 15:22 -3.11405 -60.22897 4337 ft 194 kts 359°
2026-04-23 15:23 -3.07662 -60.22863 3792 ft 191 kts 359°
2026-04-23 15:24 -3.03917 -60.20713 3097 ft 185 kts 86°
2026-04-23 15:24 -3.03847 -60.19423 2847 ft 185 kts 89°
2026-04-23 15:24 -3.03831 -60.18139 2590 ft 183 kts 90°
2026-04-23 15:25 -3.03836 -60.15731 2141 ft 168 kts 90°
2026-04-23 15:26 -3.03846 -60.11230 1280 ft 158 kts 90°
2026-04-23 15:26 -3.03850 -60.10148 1089 ft 155 kts 90°
2026-04-23 15:26 -3.03851 -60.09086 890 ft 151 kts 89°
2026-04-23 15:27 -3.03847 -60.08041 667 ft 148 kts 89°
2026-04-23 15:27 -3.03851 -60.07025 476 ft 145 kts 90°
2026-04-23 15:27 -3.03858 -60.06027 281 ft 141 kts 90°
2026-04-23 15:27 -3.03859 -60.05141 267 ft 108 kts 90°
2026-04-23 15:28 -3.03860 -60.04536 269 ft 69 kts 90°
2026-04-23 15:28 -3.03862 -60.04086 268 ft 58 kts 90°
2026-04-23 15:29 -3.03668 -60.03901 267 ft 17 kts 287°
2026-04-23 15:29 -3.03637 -60.04017 267 ft 18 kts 284°
2026-04-23 15:29 -3.03615 -60.04097 267 ft 18 kts 285°
2026-04-23 15:30 -3.03483 -60.04333 267 ft 14 kts 325°
2026-04-23 15:30 -3.03411 -60.04368 267 ft 13 kts 343°
2026-04-23 15:30 -3.03336 -60.04412 267 ft 13 kts 290°
2026-04-23 15:30 -3.03343 -60.04478 267 ft 0 kts 261°
2026-04-23 15:31 -3.03344 -60.04484 267 ft 3 kts 260°
2026-04-23 15:31 -3.03348 -60.04516 267 ft 5 kts 274°
2026-04-23 15:31 -3.03318 -60.04534 267 ft 6 kts 350°
2026-04-23 15:31 -3.03279 -60.04538 267 ft 3 kts 354°
2026-04-23 15:32 -3.03269 -60.04540 267 ft 0 kts 353°